User: anonymous
Location: Bishop's University Astronomical Observatory
(45.3661°N, 71.8475°W)
Time: 19:16:41
(UTC-04:00)
Language:

Meteor 2-5 Rocket - Orbit

View from above orbital plane
View from above orbital plane
View from above satellite
View from above satellite

Ground track
Ground track

The orbit data is extracted from the following two-line orbital elements,

1 11608U 79095B   14210.39950196  .00000182  00000-0  10265-3 0  6025
2 11608 081.2158 153.5302 0053858 242.3565 262.8851 14.06010142781993
Epoch (UTC): 29 July 2014 09:35:16
Eccentricity: 0.0053858
inclination: 81.2158°
perigee height: 834 km
apogee height: 912 km
right ascension of ascending node: 153.5302°
argument of perigee: 242.3565°
revolutions per day: 14.06010142
mean anomaly at epoch: 262.8851°
orbit number at epoch: 78199

The dashed part of the orbit path shows where the satellite is in the earth's shadow,  

DLR